Theta_e
300 300 299 299 299 299 299 299 299 299 299 299 299 299 299 299 299 300 300 300 300 300 301 302 302 302 304 305 305 304 302 301 301 301 302 301 302 303 303 303 304 303 302 305 307 308 308 308 308 308 308 308 309 309 309 310 309 312 315 312 311 312 312 311 312 311 310 308 304 303 304 305 305 306 305 304 303 303 303 303 302 302 302 302 302 302 304 309
300 299 299 300 300 299 300 299 299 299 299 299 299 299 299 299 300 300 300 300 300 301 301 303 303 302 303 304 305 305 304 302 301 302 301 301 302 303 303 304 304 304 303 304 306 308 308 308 308 308 308 308 308 308 309 309 308 311 313 311 311 312 308 307 307 306 307 306 302 302 303 303 303 304 304 303 302 302 302 302 302 301 301 301 301 304 306 309
299 299 300 300 300 300 300 300 300 300 299 299 299 299 299 299 300 300 300 300 300 301 301 303 303 303 302 303 304 304 305 303 301 302 301 301 302 303 303 304 304 304 303 303 305 307 308 308 308 308 308 306 306 307 307 307 307 307 309 311 311 309 306 303 303 304 305 304 302 301 301 301 301 303 303 302 301 301 301 301 301 301 301 300 300 302 304 306
299 299 300 300 300 300 300 300 300 300 299 299 299 299 299 299 300 300 300 300 301 301 301 302 303 303 302 303 303 303 305 304 301 302 301 301 303 303 303 304 304 304 304 303 304 307 307 307 308 308 307 305 304 306 305 305 306 305 306 309 308 306 304 303 302 304 305 303 302 301 301 301 300 301 302 302 301 300 300 301 301 301 300 299 299 300 302 304
299 299 299 300 300 300 300 300 300 300 300 299 299 299 299 300 300 300 300 300 301 301 301 301 301 302 302 302 303 303 306 305 301 302 301 301 303 303 303 304 304 304 304 304 305 306 307 307 308 306 305 303 304 305 304 303 304 303 302 303 303 303 303 302 303 304 303 302 301 301 301 301 300 300 300 300 300 300 300 300 300 300 299 298 298 300 302 302
299 299 299 300 300 300 300 300 300 300 300 300 299 299 299 300 300 300 300 300 301 301 301 301 301 302 301 301 302 302 304 303 301 302 301 301 302 303 303 304 304 304 304 304 305 306 306 306 306 305 303 303 303 303 303 303 304 303 302 301 301 302 301 302 303 302 301 301 300 300 300 300 300 299 299 300 299 299 300 299 299 299 298 297 298 300 301 300
299 299 299 300 300 300 300 300 300 300 300 300 299 299 299 300 300 300 300 301 301 301 301 301 301 302 301 302 302 301 302 301 301 302 301 301 302 303 303 303 304 305 304 304 305 306 306 306 305 304 303 304 303 303 303 303 303 303 302 301 301 301 300 301 301 300 301 300 300 300 300 300 299 299 299 299 299 299 299 298 298 298 297 298 299 299 299 298
299 299 299 300 300 300 300 300 300 300 300 299 300 299 300 300 300 300 300 301 301 301 301 301 301 301 301 302 303 302 300 300 301 301 301 301 302 303 303 303 304 305 305 305 305 305 305 305 305 305 304 304 304 303 303 303 303 303 302 301 301 301 300 300 300 300 300 299 300 300 299 299 299 299 298 298 299 299 299 298 297 297 297 298 299 298 297 297
299 299 299 300 300 300 300 300 300 300 300 299 299 299 300 300 300 300 300 300 301 301 301 302 302 302 301 302 303 302 300 300 300 301 301 301 302 303 303 302 303 305 305 305 305 305 305 305 304 305 303 303 303 302 303 304 303 302 301 301 300 300 300 300 300 299 299 299 300 300 297 298 299 299 298 298 299 298 298 298 297 297 298 298 297 297 297 297
299 299 299 300 300 300 300 300 300 300 300 300 300 300 300 300 300 300 300 300 300 301 301 301 302 302 302 302 303 302 300 299 300 300 301 301 301 302 302 302 303 304 305 305 305 305 305 305 304 304 304 303 303 302 302 303 303 301 301 300 300 301 301 300 300 300 299 299 300 299 297 297 299 299 298 298 298 298 298 297 297 297 297 296 296 296 296 296
299 299 300 300 300 300 300 300 300 300 300 300 300 300 300 300 300 300 300 300 300 300 301 301 301 301 302 302 302 300 299 299 299 300 301 301 301 302 302 302 302 303 304 305 305 305 305 305 305 305 305 304 303 302 302 302 302 302 302 301 300 300 301 300 300 300 300 300 300 299 298 297 297 297 297 297 298 297 297 297 296 296 296 295 295 295 295 295
299 299 300 300 301 301 301 301 301 301 300 300 301 300 301 301 300 300 300 300 300 300 300 301 302 302 302 301 300 299 300 300 299 300 300 300 301 302 302 301 302 302 304 305 305 305 305 305 306 306 305 304 303 303 303 302 302 302 303 304 302 301 300 299 299 299 300 300 300 301 300 297 296 296 297 298 297 297 296 296 296 296 295 295 295 294 295 294
299 299 300 300 300 301 301 301 301 301 301 301 301 301 301 301 301 301 300 300 300 300 300 301 301 302 303 301 299 300 300 300 299 300 300 300 301 301 301 301 302 302 303 304 304 304 304 305 305 304 303 303 302 302 303 302 302 303 302 304 306 303 301 299 298 299 300 299 300 302 302 298 296 296 297 297 297 297 296 296 296 295 295 295 295 294 294 294
299 299 299 300 300 300 301 301 301 301 301 301 301 301 301 301 302 301 301 301 301 301 301 301 301 302 302 300 299 300 300 300 300 300 300 300 300 301 301 301 302 302 302 303 304 304 304 304 305 303 303 302 302 302 304 302 302 304 303 304 307 304 302 301 297 298 301 300 299 301 299 297 296 296 297 297 297 296 296 296 296 295 295 295 294 294 294 293
299 299 299 300 300 300 301 301 301 301 301 300 300 301 301 302 302 301 302 302 302 302 301 301 302 302 301 299 300 300 301 301 301 300 300 300 300 300 301 301 302 302 302 303 303 304 304 304 304 302 302 302 303 304 305 304 302 304 305 305 306 304 303 303 297 296 300 299 299 300 299 296 296 296 297 297 296 296 296 296 296 295 295 295 294 294 293 293
299 299 299 299 299 300 300 301 301 301 301 300 300 300 301 301 302 302 302 302 303 302 302 302 302 302 301 300 300 300 301 301 301 301 301 300 300 300 300 301 302 302 302 303 303 304 304 304 303 301 301 301 302 304 304 305 304 303 304 305 305 305 304 303 299 296 297 297 298 300 299 297 296 297 297 297 296 296 296 296 296 296 295 295 295 294 294 294
299 299 299 299 299 299 299 300 301 301 301 301 301 301 301 301 301 302 302 302 303 302 302 302 302 303 302 300 300 300 300 301 300 301 302 301 300 299 300 301 301 302 302 303 303 304 303 302 302 301 299 298 298 303 305 305 305 304 303 303 302 303 303 302 301 298 296 296 297 297 297 296 296 296 297 297 296 296 296 296 296 296 296 295 295 294 294 294
299 299 299 299 299 299 299 300 300 301 302 302 303 303 302 301 301 302 302 302 303 302 303 302 302 305 302 299 299 299 299 300 300 301 301 302 301 300 300 301 301 302 301 302 302 301 301 300 300 300 299 297 296 301 306 305 304 305 304 303 301 301 302 302 301 299 297 296 296 296 296 296 296 296 297 297 296 296 296 296 296 296 296 295 295 294 294 294
299 299 299 299 299 299 299 300 300 301 301 302 302 303 304 302 301 301 302 302 302 302 302 301 301 303 301 299 298 299 299 299 300 301 301 302 302 300 300 300 301 301 300 301 300 297 298 298 299 300 299 298 296 297 301 302 302 304 304 303 303 303 302 302 303 301 298 296 296 296 296 296 296 295 296 297 296 296 296 296 296 296 296 295 295 294 294 294
299 299 299 299 299 299 300 300 300 301 301 302 302 302 303 304 303 302 301 301 300 299 300 299 299 300 300 299 299 299 300 300 300 301 301 302 302 301 301 300 300 300 298 299 300 297 297 298 298 298 297 297 297 296 298 299 301 303 303 303 303 304 304 303 304 301 298 298 298 297 297 296 296 295 295 297 296 296 296 296 296 296 296 296 295 295 294 294
299 299 299 299 300 300 300 300 301 301 302 303 303 303 303 303 304 302 300 300 299 298 299 299 299 299 299 300 299 299 300 300 300 301 301 301 302 302 301 300 300 301 297 296 298 297 296 298 297 296 296 295 295 296 298 299 301 303 303 305 304 303 304 303 303 301 298 299 300 298 298 296 296 295 295 296 296 296 296 295 296 296 296 296 295 295 294 294
299 299 300 300 300 300 300 300 301 301 302 302 302 303 303 302 303 302 301 301 299 299 299 299 299 299 299 300 299 299 299 301 301 301 301 301 302 301 299 298 298 299 296 297 300 299 297 298 297 296 294 293 294 296 299 299 301 304 304 306 305 302 302 303 303 302 300 300 301 299 297 297 298 296 295 296 296 296 296 296 296 296 296 295 295 295 294 294
299 299 299 300 300 300 300 301 301 301 301 301 302 302 302 302 301 302 302 301 300 300 299 299 299 299 299 299 299 299 298 299 299 299 300 301 301 300 299 298 299 299 297 299 302 301 300 298 297 295 292 294 295 295 298 300 301 303 304 306 305 301 303 304 303 304 302 300 301 300 299 299 299 297 295 295 296 296 296 296 296 296 295 295 295 295 294 294
298 299 299 300 300 300 300 301 301 301 301 301 301 301 301 301 301 302 301 300 300 299 300 299 299 299 299 299 299 300 298 297 297 298 299 300 300 300 298 297 300 300 297 298 299 299 300 297 295 294 293 295 296 296 299 303 302 301 303 304 303 301 303 303 302 304 304 301 301 301 302 304 301 297 296 295 295 296 296 296 296 295 295 295 295 295 294 294
298 299 299 299 299 300 300 300 301 301 300 301 301 300 301 300 302 302 300 301 301 300 300 300 298 299 299 298 299 299 298 297 296 297 298 299 299 300 298 297 301 302 299 299 300 300 299 296 295 296 297 297 297 298 297 300 303 302 300 299 299 300 301 302 302 304 305 303 300 299 304 309 304 299 298 297 295 295 295 295 296 295 295 295 295 295 294 294
298 299 299 299 300 300 300 300 300 300 300 301 300 300 300 299 301 301 303 309 307 300 300 300 298 299 299 298 299 299 301 300 296 296 298 299 298 299 300 298 298 300 299 298 299 299 298 296 295 295 298 299 299 299 295 297 304 302 297 296 297 298 301 303 304 305 306 304 299 298 303 308 305 301 300 298 296 295 295 295 295 295 295 295 295 295 294 294
298 299 298 299 299 299 300 299 299 300 300 300 300 300 300 299 301 300 304 316 309 298 299 300 299 299 298 298 298 300 302 300 297 297 297 299 298 299 301 300 299 299 295 297 301 297 297 300 298 296 298 301 301 299 296 296 301 299 297 296 297 298 301 304 304 306 307 304 301 299 301 303 305 305 301 297 296 295 295 295 295 295 295 295 295 295 294 294
298 298 299 299 299 299 299 299 299 299 299 300 300 301 300 300 302 302 307 311 303 297 299 299 298 298 298 298 298 299 299 298 298 298 297 298 298 298 300 298 298 297 293 300 306 297 296 301 298 297 299 300 299 297 296 297 300 299 296 296 296 296 299 301 304 308 305 303 305 300 298 302 307 306 299 296 295 295 296 296 295 295 296 295 295 295 294 294
298 298 299 299 299 300 299 299 299 299 299 300 300 301 301 300 301 304 309 306 299 298 299 298 299 298 297 298 298 297 297 297 297 297 296 298 298 297 298 295 295 296 294 300 305 297 296 298 296 297 298 298 298 296 294 296 299 297 294 295 296 296 299 299 303 308 304 303 306 300 297 301 305 304 299 296 296 295 296 296 294 295 296 295 294 295 294 294
298 298 298 299 299 299 299 299 299 299 300 299 300 302 300 302 308 311 308 302 298 297 298 298 299 297 297 300 301 297 296 296 296 296 296 296 297 296 296 295 295 298 299 299 301 298 295 296 296 296 296 296 296 295 292 293 296 295 295 297 298 298 300 299 302 304 303 306 305 298 296 298 300 304 300 297 297 296 296 296 293 294 296 294 294 294 294 294
298 298 298 299 299 299 299 299 299 299 299 300 301 301 300 304 314 317 304 299 298 299 299 299 298 296 297 301 301 297 296 297 295 296 298 296 296 295 296 297 297 302 308 305 302 300 297 298 297 295 295 295 295 295 292 293 294 294 299 300 298 300 299 300 304 301 301 307 303 296 297 297 299 304 303 300 300 296 295 296 294 294 295 293 293 293 293 294
298 298 298 299 298 299 299 299 300 299 299 302 300 301 305 307 309 309 303 299 300 300 300 299 297 296 298 298 297 296 297 298 294 295 297 295 295 294 294 295 295 302 309 304 302 302 300 298 296 294 295 294 296 300 298 298 297 296 303 304 302 305 302 301 305 300 300 304 297 294 297 296 297 301 304 304 300 295 293 295 295 294 294 293 293 293 293 294
297 297 298 298 298 299 298 298 299 298 300 303 300 302 312 313 303 302 303 302 299 297 296 298 297 295 298 302 299 296 296 297 295 295 294 294 296 295 294 292 291 298 302 300 300 304 304 300 296 297 297 294 296 301 301 301 300 299 302 302 302 306 303 304 306 300 300 301 294 292 295 298 300 299 301 301 297 294 294 294 294 293 293 293 293 293 293 293
297 297 297 298 298 298 298 298 298 299 301 302 302 304 309 309 305 301 300 300 297 295 296 298 298 296 298 301 298 295 297 296 295 296 296 298 301 299 297 294 292 295 298 300 299 299 303 303 298 297 297 295 295 296 296 297 298 298 298 297 301 303 300 304 307 302 301 300 295 294 297 302 303 299 297 295 292 294 295 294 293 293 293 293 292 293 293 293
296 297 297 297 298 297 298 298 298 300 300 301 307 309 307 308 306 303 302 298 296 298 297 295 298 300 300 300 295 293 297 297 296 297 298 299 299 298 296 295 293 293 296 300 297 295 300 300 296 295 294 294 295 294 294 296 298 298 296 298 301 300 299 300 298 295 296 297 298 298 299 300 298 296 295 292 291 293 294 294 293 293 293 292 292 292 292 292
296 297 297 298 298 297 298 298 298 300 299 304 312 309 305 304 300 301 302 298 297 298 298 298 300 302 302 302 299 296 295 295 296 299 298 296 295 295 295 294 293 292 294 298 296 295 300 300 296 295 295 293 293 294 293 296 298 298 298 299 296 294 298 300 295 290 291 296 299 298 298 298 296 296 296 292 292 293 292 293 293 293 293 292 292 292 292 292
296 297 297 297 297 298 299 298 299 300 298 306 314 304 299 298 295 297 298 296 297 296 297 300 299 298 301 302 301 300 297 294 295 300 298 294 295 295 295 295 292 291 292 295 295 293 296 300 297 295 297 294 292 294 295 293 296 300 299 297 294 292 296 299 298 297 296 298 299 296 295 297 297 298 296 293 293 293 291 292 292 292 293 292 292 292 292 292
296 297 297 298 298 298 298 298 299 299 298 309 318 305 295 296 295 295 296 295 296 296 298 302 298 296 300 301 300 299 297 296 298 301 299 296 297 295 294 296 293 291 291 292 296 293 292 300 300 294 296 296 292 295 298 295 294 296 295 294 295 297 298 297 297 299 298 298 299 297 294 294 295 296 297 294 293 293 292 291 291 291 292 292 292 292 292 292
297 297 298 298 299 297 299 299 298 299 301 308 315 305 295 295 295 295 296 295 295 296 298 300 297 295 298 299 298 296 295 297 298 298 297 296 298 295 293 294 293 292 292 292 296 295 292 298 301 297 294 293 294 297 299 298 296 295 295 294 295 297 298 296 294 296 298 298 299 298 297 298 296 295 298 297 294 292 293 292 291 291 292 292 292 292 292 292
297 298 298 298 299 298 299 299 298 302 306 303 302 300 295 295 296 295 296 296 295 296 297 297 297 297 298 297 295 294 295 297 297 297 296 295 296 294 293 293 292 291 292 292 294 294 293 295 299 299 295 294 296 297 296 296 295 296 298 297 295 295 295 295 293 293 296 298 298 297 299 301 298 295 297 298 295 292 292 292 291 291 292 292 292 292 292 292
298 299 299 298 299 298 298 300 298 298 303 298 294 295 295 296 296 294 295 296 295 295 296 296 296 296 298 298 295 294 296 297 297 297 297 295 295 295 293 293 292 291 292 293 294 294 294 294 296 298 299 299 298 293 292 293 293 295 297 295 295 295 295 297 296 293 292 294 295 295 296 298 296 294 294 294 293 292 292 292 292 291 291 292 292 292 292 292
298 300 299 298 299 298 299 302 294 291 298 299 294 295 296 296 295 294 294 295 295 294 294 295 294 295 297 297 295 295 297 298 298 297 297 295 295 296 294 292 292 291 292 293 292 291 292 293 295 297 297 297 293 289 289 290 290 293 294 293 293 294 295 298 299 295 292 291 291 291 293 296 294 292 290 290 290 291 292 292 291 291 291 291 292 292 292 292
298 299 299 298 298 298 299 301 296 293 296 296 293 294 296 295 295 295 295 294 294 295 296 296 295 295 296 294 293 295 296 296 297 296 296 296 295 295 293 292 291 292 292 292 291 291 293 294 296 297 296 294 291 289 288 287 289 293 293 292 292 292 293 295 295 293 293 293 293 292 293 295 294 291 290 291 291 291 292 291 291 291 291 291 292 292 292 292
298 298 298 298 298 299 299 301 304 301 295 293 295 295 295 294 294 295 294 293 293 294 296 297 295 294 293 291 292 293 293 294 295 294 294 295 295 294 292 292 292 292 292 292 292 292 294 295 295 297 299 298 297 296 294 292 292 294 293 292 291 291 291 291 290 290 292 293 294 295 294 295 295 293 291 291 291 291 292 292 291 291 291 291 291 291 292 292
298 299 298 297 298 299 298 299 303 301 296 296 298 296 295 295 294 294 294 293 293 293 295 295 294 294 293 291 293 293 291 293 294 293 293 293 293 292 292 293 292 291 292 293 293 293 293 293 294 297 299 299 300 300 298 295 294 292 292 292 291 291 292 292 291 291 292 291 291 294 295 294 294 294 292 291 291 291 291 292 292 291 291 291 291 291 291 292
299 300 299 298 298 298 297 295 297 298 297 300 300 296 296 297 294 293 293 293 294 293 294 294 294 294 294 293 296 296 293 291 291 292 293 294 293 292 292 293 292 291 293 293 293 293 291 289 292 296 297 297 297 296 293 292 292 292 292 292 291 291 291 292 293 292 292 291 290 292 292 292 292 292 292 292 291 291 291 291 291 291 291 291 291 291 291 291
299 299 298 299 298 297 296 294 295 297 298 300 299 296 297 298 295 294 293 293 294 294 294 294 293 294 295 296 297 297 294 291 291 293 293 293 293 291 290 292 292 292 293 293 293 293 292 292 292 293 294 293 293 293 291 291 291 291 291 291 291 291 290 291 291 291 291 291 291 292 291 291 291 291 291 291 291 291 290 290 290 291 290 291 290 291 291 291
299 298 296 297 298 297 296 296 295 294 294 295 296 295 297 298 296 296 295 293 293 294 294 295 294 295 296 295 296 296 293 293 293 293 293 292 292 292 292 291 291 292 293 292 292 292 293 294 292 290 293 292 290 291 291 290 290 290 290 290 290 290 290 290 290 290 290 291 291 291 291 290 290 290 291 291 290 290 290 290 290 290 290 290 290 290 290 290
298 298 296 297 297 295 295 294 293 293 294 295 296 295 297 300 299 296 294 293 295 294 293 295 296 295 293 292 296 298 295 295 295 294 293 293 292 292 294 293 291 292 293 291 290 290 292 294 291 290 292 291 290 291 291 290 290 289 289 289 289 289 289 289 289 289 289 289 290 290 290 290 290 290 290 290 290 290 290 290 290 290 290 290 290 290 290 290
297 297 296 297 296 293 293 293 293 296 297 296 297 296 296 299 299 294 292 295 298 295 293 295 297 294 291 291 295 298 295 294 295 293 293 293 293 292 294 294 292 291 291 291 290 289 291 293 292 291 292 291 291 292 292 291 290 289 289 289 289 289 289 289 289 289 289 289 289 289 289 289 289 289 290 290 290 290 289 290 290 290 290 290 290 290 290 290
297 297 297 297 297 293 292 292 292 295 298 298 297 296 296 297 296 293 293 294 296 296 294 294 296 293 291 292 294 295 294 292 293 293 292 293 293 293 294 293 292 293 292 291 291 291 291 292 292 291 292 292 291 292 292 291 290 290 291 291 290 289 289 288 289 288 289 289 289 289 289 289 290 290 290 290 290 289 289 290 290 290 290 290 290 290 290 290
296 297 296 298 299 295 292 292 292 295 300 298 296 295 296 296 294 293 295 294 292 294 294 292 294 295 294 294 294 294 294 293 293 293 292 293 292 292 293 292 292 294 293 291 291 291 291 293 293 292 292 291 291 292 291 291 292 295 295 293 291 290 289 289 289 289 288 288 289 289 290 290 290 290 290 290 290 289 290 290 290 291 290 290 290 290 290 291
Wind_Speed
14 14 14 14 14 14 14 14 13 13 13 13 14 15 16 16 13 12 12 16 19 19 20 15 3 11 4 9 19 29 35 40 44 50 50 38 29 26 28 29 27 31 26 17 16 14 13 13 11 9 8 12 16 13 13 14 13 8 4 5 5 2 2 1 1 1 4 4 9 18 20 16 11 13 17 26 36 31 30 33 29 31 32 28 26 30 37 33
14 14 14 14 14 14 14 13 13 13 13 13 14 15 16 16 15 13 12 15 20 22 22 19 7 10 11 1 9 18 28 36 44 49 45 33 28 28 29 29 26 29 26 17 17 18 19 19 18 14 15 21 20 17 16 16 19 10 3 5 4 2 3 5 4 4 5 6 12 20 27 26 16 13 18 22 23 28 27 24 26 31 31 33 33 35 36 33
14 14 14 14 13 13 13 13 12 12 12 13 14 15 16 16 17 14 12 15 20 25 26 23 15 2 11 8 8 11 16 31 47 46 39 33 30 29 29 29 25 25 25 18 16 17 19 23 23 22 28 27 21 25 21 16 16 10 6 6 3 1 3 11 11 9 9 13 18 20 32 36 26 20 19 23 24 27 23 20 25 27 26 32 37 40 38 36
13 13 13 13 13 13 13 12 12 12 12 13 14 15 16 17 18 16 12 14 21 27 29 29 24 14 2 8 9 10 8 22 39 37 34 33 30 28 29 28 24 22 21 15 12 14 17 20 21 27 31 22 22 31 22 14 12 9 8 4 2 2 4 13 15 18 16 18 21 21 31 31 30 32 23 25 24 18 20 20 20 20 21 28 37 42 40 39
13 12 13 12 12 12 12 12 11 11 12 12 14 15 15 17 18 19 14 11 15 21 27 31 31 29 20 10 5 7 4 8 23 30 31 32 28 27 27 26 24 20 17 11 10 10 12 16 22 30 27 14 18 23 16 15 18 11 9 9 9 5 5 12 19 24 22 24 26 25 23 17 26 36 31 32 21 9 17 18 16 19 23 30 38 41 40 41
12 12 12 11 12 12 12 12 11 11 12 12 14 13 14 16 18 20 18 13 9 9 11 16 22 28 28 27 22 17 13 5 18 27 28 29 27 25 25 24 22 18 15 13 17 16 17 25 28 25 19 15 16 15 14 20 23 13 9 17 19 16 12 13 20 22 28 34 28 25 21 21 32 27 27 36 24 13 17 16 17 22 27 34 39 41 42 43
12 12 12 11 12 12 12 12 11 11 11 12 13 13 13 13 16 18 21 20 15 10 6 2 1 4 11 20 27 34 32 18 19 23 24 27 24 24 23 21 20 19 19 21 24 26 30 35 31 22 16 13 13 13 21 30 31 19 7 14 21 25 22 19 24 25 38 40 27 30 28 27 31 20 23 32 23 16 17 18 19 24 33 39 40 42 42 43
13 12 12 12 12 12 12 11 11 10 10 12 13 14 15 15 15 15 19 22 22 20 15 9 3 5 5 5 19 36 35 24 22 20 21 24 23 23 22 22 22 21 27 29 27 27 30 31 25 22 15 8 9 9 18 27 24 15 8 11 19 25 23 21 23 25 34 31 28 37 30 23 26 23 28 26 18 16 15 19 21 27 38 40 41 41 41 42
13 13 13 12 12 12 12 11 10 9 9 9 10 11 13 16 17 16 17 18 22 24 21 18 11 6 5 3 18 29 25 21 19 19 19 21 21 22 23 25 23 22 28 30 31 31 30 29 25 24 17 12 15 11 14 19 11 9 13 16 20 22 22 22 24 25 25 22 30 34 22 19 15 14 24 22 16 15 15 19 22 32 42 41 42 41 40 41
13 13 13 12 13 12 12 11 10 9 8 7 6 6 7 10 13 16 17 17 19 21 23 25 20 17 15 18 29 21 15 18 17 16 17 18 19 22 25 27 23 22 25 25 29 30 28 29 26 27 23 18 21 16 17 17 7 8 18 23 23 22 24 21 19 21 21 24 36 31 18 24 19 10 13 17 15 14 16 20 25 37 42 41 41 40 40 40
12 12 13 13 13 12 12 11 10 9 8 7 5 5 5 6 7 9 13 16 17 17 18 20 23 26 24 30 34 18 14 20 16 15 15 16 18 22 28 27 23 22 23 24 24 22 20 20 19 20 16 13 18 18 18 13 6 7 13 18 19 23 28 25 15 13 10 12 20 22 20 27 25 14 10 13 14 14 18 23 29 37 37 38 39 38 39 39
12 12 13 13 13 13 13 12 10 9 8 8 7 5 4 5 6 6 8 11 14 19 20 18 16 18 26 36 32 18 18 20 17 16 14 15 18 20 25 26 24 22 21 24 26 22 20 17 16 15 10 8 8 8 11 10 11 13 13 9 10 15 21 25 20 14 7 4 8 5 14 19 16 13 14 12 11 14 21 26 30 33 32 34 36 37 37 37
11 12 12 13 14 14 14 14 12 10 8 8 8 7 4 2 5 8 9 9 10 13 17 22 20 14 21 29 24 15 16 20 17 13 12 14 16 17 22 24 24 23 20 24 25 24 25 22 22 23 18 13 6 5 7 8 13 15 12 5 4 8 9 19 23 15 9 12 7 5 5 9 8 14 17 11 9 14 22 25 27 29 30 31 33 35 36 35
11 11 12 12 13 14 15 15 14 11 8 7 8 9 7 3 3 6 10 12 13 13 11 14 19 20 25 21 16 16 14 17 18 15 15 14 13 15 19 21 23 22 20 21 21 20 21 19 21 25 22 16 10 8 7 9 11 6 5 3 4 4 3 11 21 17 8 14 12 14 6 4 5 14 14 10 11 14 18 23 24 26 28 29 31 33 33 34
10 10 10 10 11 13 14 15 14 12 9 7 6 7 8 6 4 4 6 8 10 13 13 11 11 15 23 18 15 17 12 13 19 20 21 17 13 14 16 20 22 22 22 22 19 16 16 16 21 20 16 17 15 9 5 6 6 4 2 3 4 3 1 7 19 20 4 7 17 13 6 2 4 11 11 9 11 12 16 21 21 23 25 26 28 30 31 31
9 9 9 8 8 10 12 13 14 16 15 14 13 13 11 6 4 5 6 8 10 11 10 13 13 14 15 11 13 18 17 17 19 17 18 20 16 11 11 15 19 21 22 23 19 16 17 20 25 25 19 17 11 6 6 5 5 5 4 2 4 3 3 4 13 24 8 2 15 12 8 2 2 7 8 6 8 10 14 18 19 21 22 24 26 27 28 29
8 9 8 7 6 6 7 9 11 15 17 18 20 22 22 16 5 3 4 7 10 12 12 12 11 14 16 11 12 20 23 23 19 12 11 17 18 12 7 8 14 17 20 24 21 19 21 19 18 18 19 13 6 3 7 6 4 4 4 3 3 3 4 3 5 20 17 9 11 11 9 5 2 4 6 5 7 9 12 16 17 18 19 22 23 24 26 27
8 7 7 7 7 6 6 4 4 6 10 12 14 15 19 23 15 4 1 3 2 5 11 14 9 8 12 16 15 16 19 22 20 14 9 9 14 15 10 8 9 9 14 20 18 17 16 15 14 8 9 10 7 7 6 3 2 2 3 3 3 4 5 6 2 8 13 11 11 8 8 6 2 3 5 5 7 9 11 14 15 16 18 19 21 23 24 25
7 7 7 7 6 7 6 5 4 3 4 6 7 9 8 14 20 19 15 12 11 8 6 14 14 6 2 16 18 11 13 21 22 17 10 5 10 13 11 14 13 12 14 11 14 19 12 10 14 7 5 7 5 5 4 4 4 5 3 3 4 4 3 3 1 3 6 8 8 6 6 5 1 1 3 4 5 7 9 11 13 14 16 18 20 21 22 23
7 6 6 6 6 7 7 6 6 4 5 6 8 7 4 4 10 18 28 29 26 20 11 12 15 9 3 15 20 11 10 19 23 21 16 10 8 9 10 12 18 24 17 4 6 17 14 9 8 4 4 6 5 4 0 3 4 6 5 4 4 3 3 2 3 6 4 4 4 3 4 3 1 2 1 2 3 5 7 8 11 12 14 16 17 18 19 20
7 7 6 7 6 7 7 7 7 5 6 9 9 7 6 6 5 8 20 26 23 21 19 17 15 12 9 14 21 15 8 14 22 23 20 16 10 8 13 13 13 15 11 3 3 9 13 10 4 5 6 7 6 4 0 3 4 5 5 5 4 2 1 2 3 6 5 4 1 1 3 2 2 1 1 2 1 2 4 5 8 10 12 14 14 16 16 17
6 6 6 6 6 6 7 7 6 5 5 6 10 15 16 15 13 11 12 13 14 16 18 18 18 16 11 9 16 18 14 14 20 25 24 21 16 12 15 17 12 7 7 5 4 5 9 6 5 7 7 5 5 4 2 6 5 4 4 4 3 2 2 4 3 5 6 3 1 1 3 3 4 3 2 3 3 2 3 4 6 8 10 12 12 13 14 15
6 6 6 6 6 6 7 6 5 4 5 5 6 12 17 16 13 11 10 8 10 13 14 17 19 20 16 10 12 17 20 17 15 24 27 22 19 15 14 14 8 5 7 6 5 5 5 2 7 7 5 2 3 5 4 5 5 4 4 4 1 2 1 1 3 6 5 2 3 3 2 3 3 3 3 4 4 4 4 4 5 6 8 10 10 11 11 12
5 6 6 5 6 6 6 7 7 5 5 5 6 9 11 10 8 7 6 6 5 8 12 15 17 20 19 16 12 11 18 18 15 22 26 23 16 11 10 8 5 4 6 7 10 9 4 3 7 5 4 3 1 6 8 4 4 3 1 4 2 2 1 1 2 5 5 3 2 2 2 3 4 4 4 5 5 5 4 5 5 6 7 8 8 8 9 10
6 6 6 6 5 6 7 7 7 7 5 4 4 5 5 4 6 5 4 4 3 6 8 10 14 16 17 18 12 4 9 16 20 21 21 22 16 7 6 7 6 4 2 4 9 8 3 2 4 3 5 5 3 6 6 2 2 3 1 3 2 3 3 3 3 3 3 3 2 2 2 4 4 6 6 5 4 5 5 5 4 4 6 6 7 7 6 7
7 7 7 7 6 6 6 6 7 6 4 4 2 2 2 2 4 4 4 4 2 6 7 7 9 12 15 19 13 1 4 9 16 20 17 19 17 7 4 6 6 4 1 1 4 3 1 4 5 3 3 6 7 4 1 2 4 2 1 2 2 2 3 2 1 1 1 1 1 2 2 4 4 5 8 6 5 6 6 6 6 5 4 4 4 4 4 5
7 8 8 8 8 7 6 6 7 6 4 3 3 2 1 1 3 3 4 5 4 4 6 5 6 9 12 17 15 4 1 8 10 17 18 16 16 10 5 3 4 4 1 2 3 2 2 6 7 5 4 6 6 2 1 3 4 0 2 1 4 2 3 2 2 2 1 2 1 2 3 2 4 5 6 6 6 6 6 6 7 7 5 2 2 1 2 3
7 8 8 8 8 7 7 8 7 7 5 4 4 3 0 1 2 3 4 3 4 3 4 5 4 8 8 12 19 12 5 9 6 11 18 13 13 12 8 3 2 2 2 4 3 2 2 5 6 5 6 5 2 2 3 3 2 2 3 1 3 2 3 1 3 1 1 1 3 1 3 1 5 4 1 4 5 7 7 7 8 9 7 2 1 2 2 3
6 7 8 8 8 7 8 8 8 7 6 5 4 2 1 1 1 3 5 2 3 3 3 6 5 9 10 7 16 17 11 11 7 9 14 12 11 10 7 4 2 2 5 5 4 0 2 2 3 3 4 3 2 5 4 4 1 3 3 2 1 2 2 3 3 1 2 1 4 3 2 1 5 4 2 2 4 7 7 6 8 10 7 1 2 3 4 5
6 6 7 7 7 8 7 8 8 7 7 5 4 2 2 2 2 4 3 2 1 2 3 6 5 10 13 5 9 16 12 10 12 11 12 11 12 13 9 5 6 3 4 7 5 0 2 1 1 2 2 4 5 4 3 6 2 2 4 4 4 4 4 3 2 2 3 3 5 2 1 1 3 4 5 4 4 6 7 4 6 9 6 1 2 3 5 7
5 5 6 7 7 7 7 7 7 7 7 5 2 2 1 2 4 5 1 2 0 3 4 5 4 6 9 4 4 12 8 10 16 13 10 9 11 16 12 5 6 5 3 6 4 3 4 3 1 1 4 7 4 2 1 4 2 3 3 3 3 2 3 3 4 3 1 5 5 2 3 1 3 5 4 5 5 5 8 6 7 9 5 1 2 4 6 8
4 4 5 6 6 6 6 7 8 7 6 4 1 1 2 2 3 1 2 3 1 2 2 1 3 3 4 3 3 6 4 6 13 10 5 5 6 9 8 3 3 4 3 4 3 4 2 0 3 3 3 10 6 1 3 3 4 4 3 4 3 3 3 2 3 1 3 5 3 2 4 1 6 7 5 6 6 4 9 12 13 9 4 1 2 3 5 7
4 4 5 5 5 7 7 7 7 6 6 4 0 1 5 4 1 2 2 2 1 1 1 1 3 2 1 3 4 4 3 2 7 6 3 3 4 3 3 4 3 1 1 2 2 5 3 3 6 2 2 10 7 3 3 4 5 5 3 3 2 2 3 3 4 2 3 4 3 3 3 3 5 5 3 5 5 6 11 16 14 8 4 1 1 3 5 7
4 4 5 5 6 7 7 7 6 6 5 3 1 2 5 0 3 1 2 3 1 2 2 1 3 3 3 4 1 2 3 1 3 5 4 3 5 3 3 6 7 3 2 3 2 2 2 3 5 3 3 8 6 3 2 1 2 3 1 1 2 3 2 3 3 2 4 4 4 3 2 3 2 3 3 1 3 7 14 15 10 5 3 1 3 4 7 9
4 5 5 5 6 6 6 6 6 6 5 2 4 5 3 3 3 2 2 3 1 2 2 1 2 4 4 3 2 1 2 1 2 4 4 3 2 2 3 4 6 4 2 3 1 0 1 3 4 3 2 4 4 2 1 2 1 2 1 3 2 1 2 1 3 3 1 3 4 3 3 3 2 2 3 1 4 9 13 13 8 3 2 3 4 6 10 12
4 4 5 5 6 6 6 6 5 5 4 2 5 3 3 3 2 2 2 0 1 1 1 3 3 5 3 4 4 3 1 1 2 3 4 3 1 0 0 2 4 4 2 2 1 1 2 3 4 4 1 3 6 3 2 3 0 0 2 2 1 2 4 3 1 1 4 1 3 2 3 4 3 2 2 3 3 5 7 10 8 3 4 5 7 8 11 14
3 4 5 5 6 6 6 6 5 5 4 3 5 1 3 2 1 3 1 1 1 2 3 1 2 3 2 2 3 4 3 2 2 4 2 1 1 0 0 1 2 3 1 2 1 1 1 3 4 3 1 4 7 2 4 6 2 1 1 1 1 1 3 3 1 4 4 1 4 2 3 4 3 2 1 1 3 5 5 8 9 6 6 7 8 9 12 16
4 4 5 5 6 6 6 6 5 4 3 4 4 1 2 1 1 2 0 1 1 2 4 2 0 1 1 1 2 4 3 3 2 4 1 1 1 1 1 1 1 4 3 1 1 0 0 3 5 1 1 6 8 2 1 5 5 5 3 2 2 1 0 1 1 1 1 2 5 4 4 3 3 3 2 4 8 8 7 7 8 8 7 8 10 12 16 19
4 4 4 5 6 6 6 6 5 3 3 4 2 2 1 1 1 1 1 0 1 2 2 3 1 2 1 2 1 2 2 2 1 2 1 1 1 1 1 1 1 5 5 2 2 1 1 1 4 3 1 5 6 3 1 3 5 5 4 1 2 3 3 0 1 2 2 2 3 4 5 3 5 5 5 9 11 10 8 6 7 9 8 9 13 16 20 24
4 3 3 6 6 6 6 5 3 3 4 2 2 2 1 1 1 1 1 0 1 1 0 2 2 2 1 2 1 1 1 1 1 1 0 0 1 1 1 1 1 4 4 3 3 1 2 1 3 5 4 2 2 2 1 2 2 2 2 3 2 1 1 0 0 2 3 2 2 2 4 5 4 2 5 8 9 9 10 7 7 9 10 14 17 19 23 28
3 2 3 5 5 6 5 5 7 6 4 2 1 1 0 2 3 3 2 2 2 2 2 2 3 2 2 2 1 0 1 1 1 1 0 1 1 0 1 2 1 2 2 3 3 1 1 1 2 4 4 1 2 1 1 3 3 1 0 0 1 0 1 0 2 2 1 2 3 2 4 7 4 1 3 6 7 9 10 7 7 10 14 19 22 24 28 32
2 1 3 5 4 4 4 5 7 6 3 3 2 1 1 3 3 2 2 2 2 3 3 3 2 2 2 2 1 0 1 1 1 1 0 1 1 1 1 2 1 1 2 1 1 0 2 2 1 4 4 3 4 2 1 2 2 2 0 1 2 1 3 4 3 3 0 1 1 2 4 7 4 2 3 3 3 6 6 5 10 15 21 26 28 30 35 36
2 2 3 4 3 2 3 4 4 4 2 2 3 3 3 2 2 1 1 2 2 2 3 2 1 1 1 2 2 1 1 1 1 1 1 2 1 1 3 3 1 1 2 1 1 1 2 3 1 4 4 3 5 3 2 2 4 4 1 1 2 0 2 4 4 2 1 2 1 1 4 6 4 4 3 0 1 2 5 9 13 20 27 31 31 34 38 37
2 2 3 3 3 1 1 2 1 1 1 1 4 4 3 3 2 1 1 1 1 1 2 1 0 1 1 2 3 2 2 1 0 1 1 1 1 1 2 3 1 2 2 1 0 1 1 0 1 3 5 6 5 5 5 4 2 1 2 0 2 3 5 2 1 2 1 6 6 4 7 5 2 3 3 2 5 9 14 20 22 25 30 33 34 37 39 38
2 2 1 3 3 1 2 4 5 5 2 2 4 2 2 3 3 2 2 2 2 2 2 1 1 2 3 2 3 2 1 1 0 1 1 0 2 1 2 2 1 3 3 2 1 2 1 1 1 2 1 3 4 4 4 3 2 1 0 0 1 3 4 2 0 1 3 5 7 6 7 4 4 6 8 10 11 12 20 28 30 32 35 36 36 37 38 38
1 0 1 3 4 4 6 6 6 7 5 4 3 1 1 2 1 2 4 3 3 3 3 3 3 3 3 2 3 2 2 2 2 1 0 2 2 2 1 2 2 2 3 3 2 2 2 0 2 4 5 5 5 5 3 0 2 4 3 2 3 4 5 3 2 3 3 2 5 9 10 13 15 14 14 14 12 12 18 26 30 34 38 38 37 37 39 39
1 0 1 2 3 5 8 6 6 7 6 5 3 2 3 2 0 1 2 1 3 4 3 2 2 2 1 2 2 1 1 2 2 0 1 2 2 2 2 3 2 2 2 4 3 3 3 2 3 5 7 7 6 7 4 1 5 7 6 6 7 6 6 5 7 8 2 2 7 9 8 15 19 15 13 15 12 12 18 26 31 36 39 38 37 38 40 40
1 1 1 1 0 1 4 3 4 9 8 5 3 3 4 3 1 2 2 1 3 4 2 1 2 3 4 5 3 1 1 1 2 2 1 1 2 3 3 2 2 2 4 5 3 4 3 3 3 2 5 7 6 8 7 4 7 7 6 9 11 10 10 11 14 14 7 7 13 9 7 16 20 16 15 18 19 19 25 31 34 37 38 37 36 37 38 39
2 2 2 3 2 3 4 4 8 12 9 4 3 2 4 5 4 3 2 2 1 2 3 1 4 5 6 5 5 3 3 0 1 3 2 1 2 1 2 1 1 3 4 5 2 3 3 2 2 1 5 8 6 9 9 6 7 6 6 11 14 15 14 13 15 16 14 16 18 17 19 21 21 18 18 24 30 30 31 32 33 35 37 35 34 34 35 37
2 2 3 4 4 5 7 7 9 8 5 2 2 2 4 6 6 4 3 5 2 1 4 3 3 5 7 6 5 3 6 5 2 3 4 3 1 1 2 2 2 2 3 2 1 1 2 2 1 2 4 7 4 5 7 6 8 10 12 16 16 14 13 13 14 14 14 15 17 18 21 19 18 20 21 25 29 26 25 28 32 34 35 32 32 33 34 37
4 3 4 4 4 5 5 5 5 4 2 1 3 3 4 5 7 6 4 5 5 4 5 6 4 5 4 3 4 6 8 7 4 3 5 6 4 4 4 4 5 4 2 1 1 2 2 2 3 4 2 5 2 2 6 10 12 12 13 15 13 10 8 8 10 10 10 10 11 12 13 11 13 16 17 20 22 21 22 27 31 35 34 31 32 35 37 39
6 5 5 4 2 3 5 3 2 2 2 3 5 6 4 5 9 10 4 3 6 4 3 7 8 6 3 2 6 9 10 8 6 5 5 6 7 8 8 7 7 6 4 3 2 1 3 2 1 1 2 4 2 3 8 12 12 9 7 6 4 5 5 4 7 11 10 7 6 8 9 10 13 15 14 16 20 21 24 27 31 35 35 34 36 38 39 41
Wind_Direction
57 56 54 53 53 50 47 46 42 42 47 49 47 45 45 44 43 43 40 33 28 23 17 17 148 184 155 49 37 35 31 30 35 39 38 28 15 9 4 4 2 1 10 32 38 40 54 61 70 79 88 75 61 52 57 52 47 59 73 76 87 94 54 106 201 11 80 53 14 32 49 66 53 40 64 60 53 58 61 58 60 60 58 54 52 54 53 54
55 55 55 54 53 50 47 45 43 45 51 52 49 46 44 43 41 40 42 40 35 35 30 22 34 193 202 284 6 22 25 24 34 37 30 21 16 12 6 8 8 2 8 32 39 45 62 67 75 83 79 65 51 57 68 54 53 64 96 86 86 159 72 37 357 7 49 77 58 52 58 58 45 31 60 70 44 45 51 37 43 49 50 54 54 58 58 56
53 54 54 54 53 49 46 45 44 47 54 55 52 48 43 41 39 40 50 51 47 47 44 38 38 148 204 232 314 358 10 19 29 27 19 18 17 12 8 12 13 5 8 25 39 51 66 71 77 81 75 63 49 61 62 48 54 50 64 82 60 138 63 26 23 55 86 90 75 65 65 58 47 47 63 79 56 39 42 23 30 37 37 48 54 58 60 59
52 53 53 54 52 49 45 45 47 52 60 59 56 51 45 43 40 43 58 64 59 57 55 53 51 52 118 235 279 310 340 22 23 14 11 17 15 12 11 13 18 15 12 22 42 58 67 73 82 79 73 59 48 60 48 36 62 41 52 79 360 107 47 28 54 86 99 93 84 73 69 63 52 51 53 70 64 35 33 28 33 41 39 48 56 59 61 62
51 52 53 53 51 47 43 45 51 60 67 66 62 56 51 47 45 46 57 73 68 64 62 62 61 60 58 49 4 301 282 18 9 8 13 16 15 12 13 17 23 25 24 36 55 63 68 78 84 73 66 50 46 58 35 43 82 64 48 53 34 82 59 46 81 95 95 85 77 66 63 76 66 52 48 63 67 38 36 35 45 54 55 59 62 64 64 63
48 50 52 52 49 44 41 45 53 66 73 73 68 62 58 53 52 50 52 60 63 64 63 64 66 65 61 56 59 67 84 61 358 9 14 14 16 15 14 18 28 35 37 59 75 78 79 81 81 68 62 61 52 61 45 54 86 86 47 50 53 74 75 71 88 93 90 79 71 73 72 81 78 59 49 62 63 57 55 50 56 62 66 68 67 67 65 63
43 45 48 49 47 42 40 44 52 68 76 77 74 67 65 59 58 56 52 51 45 40 23 8 74 60 54 49 54 62 64 47 9 12 15 16 17 18 19 22 36 47 51 65 74 78 80 79 77 69 70 70 54 66 67 64 76 86 67 51 62 74 76 86 91 87 86 83 80 84 78 68 76 73 55 59 59 60 63 59 62 67 70 71 70 68 66 65
39 39 43 43 43 40 39 43 51 65 74 79 79 73 69 64 64 62 58 55 49 44 31 24 346 266 263 346 41 51 44 26 11 9 13 20 21 22 26 33 44 54 59 63 69 79 80 74 71 71 69 62 57 57 70 68 60 65 80 67 70 72 73 85 85 82 84 89 89 78 68 63 75 73 56 52 53 56 62 61 63 70 71 71 69 68 67 66
40 38 39 39 39 38 37 41 46 58 69 78 81 74 70 66 67 66 63 62 59 56 49 46 46 69 119 92 58 51 28 13 10 4 9 22 27 29 32 38 46 59 64 65 72 80 81 74 72 77 75 65 67 44 58 76 55 55 85 81 77 70 70 78 75 77 79 82 85 73 50 48 68 71 51 42 47 54 62 64 62 69 71 68 67 66 65 65
42 39 41 42 40 36 35 38 41 49 55 63 66 57 58 63 66 66 64 63 63 64 63 63 66 80 97 80 68 58 17 20 15 2 9 20 31 38 42 43 45 56 64 67 74 78 79 79 78 79 77 66 66 53 54 81 103 89 86 77 74 68 57 58 65 68 70 72 77 77 54 38 48 79 52 33 44 55 62 63 62 68 69 67 66 65 63 63
43 43 47 47 43 38 34 35 37 40 41 39 35 33 41 49 59 63 62 61 58 60 62 67 69 71 78 73 67 54 23 29 21 12 13 21 34 40 45 47 47 53 60 65 71 73 73 80 82 79 75 66 65 60 55 70 107 95 91 76 59 60 44 26 24 22 41 71 64 71 61 35 38 59 42 28 44 52 61 62 62 67 66 66 66 64 63 62
46 48 53 52 47 40 35 33 33 35 34 31 26 28 42 42 48 49 53 57 56 56 55 55 60 63 67 65 58 42 30 33 33 29 20 25 37 42 47 49 51 56 63 70 73 76 75 79 86 84 79 79 66 55 55 61 80 66 72 81 34 52 39 12 7 360 16 2 319 41 52 25 20 31 30 36 47 50 62 63 63 66 65 65 66 65 64 61
46 49 55 55 49 42 38 33 30 32 34 37 31 29 33 25 42 46 50 54 51 53 53 55 57 63 69 62 48 38 34 34 42 45 35 36 41 48 53 54 56 61 69 76 77 79 82 83 86 85 78 79 66 73 76 44 65 58 47 72 14 38 26 3 6 5 35 12 328 158 57 5 360 19 33 39 47 54 61 65 64 66 66 64 65 64 63 61
44 48 55 56 49 41 39 34 31 33 43 56 47 41 42 43 63 67 62 57 52 48 42 54 61 63 71 70 49 41 35 35 46 50 45 44 51 58 61 63 63 66 74 82 83 79 82 88 87 80 71 73 79 84 73 23 46 50 9 31 25 46 342 352 10 15 45 16 35 109 82 354 353 15 33 37 48 60 62 68 67 68 68 66 66 65 63 61
46 48 54 57 49 44 42 38 37 42 53 61 53 45 44 54 83 89 61 44 47 46 42 53 64 64 68 67 44 40 41 42 42 39 35 35 44 56 62 67 67 68 75 83 89 85 84 88 82 72 60 69 75 70 49 17 32 21 25 17 357 62 314 336 13 18 52 0 27 85 104 35 15 17 33 39 54 67 68 73 72 71 71 69 68 67 65 63
49 48 52 55 50 49 48 47 54 62 67 67 61 52 40 39 81 93 77 60 55 46 43 54 58 64 63 47 32 37 41 36 29 26 28 29 32 39 54 70 75 76 78 83 92 99 89 77 69 59 49 58 60 54 61 44 21 13 58 74 337 27 7 334 12 13 22 27 24 64 126 117 27 32 44 58 69 74 78 80 77 75 74 71 70 68 66 63
54 51 49 49 44 42 45 55 65 67 67 65 61 55 46 40 46 132 90 57 55 46 46 55 59 67 59 34 22 27 30 29 24 23 25 27 30 36 61 93 90 83 83 87 90 85 72 64 65 56 43 44 18 30 76 52 28 13 34 76 20 25 27 358 355 6 21 80 57 62 105 124 142 79 75 87 90 90 88 87 85 82 78 75 72 69 67 63
61 55 49 45 39 32 32 39 45 50 51 47 47 45 42 44 49 84 82 336 343 35 44 44 48 79 48 20 13 11 22 27 25 26 20 16 29 38 58 86 100 102 81 77 67 51 51 52 62 63 30 32 15 28 78 94 121 83 43 87 62 49 53 39 20 353 16 64 77 71 93 114 144 99 93 95 98 99 92 92 92 87 83 78 74 70 67 63
59 58 53 45 37 31 30 22 4 339 347 351 359 359 10 48 58 64 67 64 63 65 44 31 41 103 23 6 12 9 26 31 26 29 30 26 34 39 58 70 75 78 65 56 29 23 29 44 48 46 5 10 357 16 86 150 151 130 101 102 79 59 53 17 323 324 13 54 57 65 98 113 106 27 89 96 96 98 95 96 93 88 85 79 74 70 66 63
47 48 47 44 37 31 28 25 27 20 10 350 334 330 326 35 54 53 58 64 65 68 72 51 53 85 64 16 21 22 34 34 29 30 33 32 36 40 54 64 63 58 50 37 7 21 39 58 35 4 320 318 308 321 201 179 135 113 97 70 64 72 44 336 296 326 6 79 41 53 97 105 98 324 338 99 101 99 98 98 95 92 87 80 76 71 67 64
42 39 36 37 33 33 31 28 38 49 52 34 29 60 75 63 75 64 61 64 65 65 63 59 56 57 46 26 26 28 39 42 35 33 32 32 39 42 40 46 57 45 22 25 48 22 48 61 357 318 300 290 296 301 183 115 87 86 97 79 47 59 359 292 259 322 3 96 44 35 91 110 168 275 314 136 166 127 112 105 98 95 91 84 78 72 68 65
40 37 34 34 30 34 34 30 44 61 63 40 49 78 86 85 92 94 85 79 68 60 54 51 51 48 45 35 29 29 38 40 30 30 30 34 49 58 49 51 61 40 353 27 65 26 51 47 312 317 316 309 326 329 87 94 84 76 87 99 50 20 304 291 292 337 8 91 203 198 135 204 222 236 217 187 210 188 154 127 107 98 93 86 79 74 68 63
36 33 33 36 35 37 35 37 52 62 58 46 53 82 89 87 88 91 96 96 69 51 41 40 39 36 37 35 24 28 43 40 14 18 21 26 44 54 53 55 65 54 17 37 79 66 68 350 308 321 345 32 8 1 54 75 65 64 70 101 155 311 353 3 1 342 348 81 153 152 163 235 246 252 227 203 204 190 168 146 126 108 95 85 79 73 64 58
27 29 30 34 38 38 37 41 51 55 58 63 73 95 99 79 71 88 93 96 77 38 30 31 28 26 26 20 11 24 47 45 17 10 15 20 34 44 48 54 64 63 31 49 80 88 132 259 306 329 40 96 148 24 39 55 37 360 57 115 164 278 234 224 324 329 337 21 93 105 342 283 215 206 218 208 202 201 189 168 149 124 106 89 80 73 63 56
16 19 23 29 36 37 36 37 46 53 56 72 88 98 101 63 54 62 64 86 64 6 15 23 20 20 16 9 7 26 50 43 25 9 10 20 27 46 54 42 47 47 4 50 76 88 127 289 335 18 46 59 103 53 30 46 37 339 353 131 198 241 236 267 323 353 16 356 349 78 346 295 232 201 217 221 209 218 219 202 185 146 118 94 78 72 62 51
12 13 16 21 23 23 27 34 39 38 46 67 80 80 70 25 44 36 37 74 25 341 360 12 10 13 12 7 2 36 58 28 19 11 14 22 22 46 61 25 50 64 200 120 72 92 65 12 32 66 68 59 72 76 26 93 69 5 192 108 6 241 217 258 272 196 109 251 292 89 146 274 282 230 218 207 206 232 243 230 217 190 146 101 74 63 53 41
15 16 14 17 20 20 27 32 30 24 32 46 22 14 345 359 38 18 21 48 14 340 356 357 4 12 17 15 16 78 53 337 356 13 20 24 20 44 68 10 54 52 337 122 47 25 14 8 19 32 44 54 56 48 242 121 89 43 196 19 341 264 217 222 182 182 223 253 309 53 116 231 282 256 214 174 189 238 257 245 230 209 183 128 69 36 25 12
19 20 18 19 19 23 34 30 22 23 26 21 14 5 6 66 37 22 66 67 342 344 5 358 17 18 21 31 39 69 57 354 5 8 14 28 23 41 66 46 105 52 15 119 99 359 21 10 2 21 30 34 62 255 244 135 102 244 194 245 294 232 206 165 116 138 346 342 288 296 112 198 271 272 150 134 193 233 237 231 224 209 196 161 11 327 315 310
18 21 20 19 17 20 29 28 21 19 17 15 19 25 85 88 314 28 75 142 326 14 17 0 1 356 357 32 42 46 43 30 29 358 14 40 33 41 75 50 59 83 36 82 127 170 31 7 344 50 45 353 270 257 225 156 358 287 155 115 43 72 63 75 89 101 51 7 250 230 125 203 268 257 162 144 227 228 220 220 213 202 192 193 311 321 303 285
14 18 20 17 20 22 23 24 21 19 16 9 18 56 88 42 45 56 49 241 329 360 339 3 355 343 354 23 31 22 29 28 13 10 30 48 43 47 73 55 32 60 34 43 81 79 346 20 25 69 26 303 278 286 219 186 270 354 102 75 58 47 29 52 48 68 55 298 247 220 100 141 282 267 195 190 225 198 184 199 205 196 191 232 305 310 290 273
14 15 19 18 20 21 21 23 21 20 17 12 22 50 60 13 66 91 39 258 326 341 349 13 360 1 16 52 20 359 10 16 8 17 31 28 30 32 38 29 10 29 21 12 26 356 1 47 35 327 344 338 322 351 358 222 285 35 93 76 67 358 360 22 354 33 109 268 253 285 337 149 229 265 224 218 247 190 170 170 175 182 187 235 302 296 284 276
16 13 14 18 19 19 21 20 20 20 15 22 24 354 56 44 38 136 273 316 337 332 16 353 333 20 32 59 38 350 352 10 10 24 28 13 29 27 32 38 354 23 11 344 345 349 357 7 328 296 356 10 13 45 1 318 350 25 53 64 62 343 358 348 314 308 209 250 258 305 340 273 235 254 228 209 226 199 165 156 155 155 146 170 284 298 294 288
5 10 13 15 16 19 22 16 15 16 12 27 38 352 67 76 293 238 286 330 348 330 34 244 314 4 30 41 25 346 4 360 0 19 7 17 48 43 43 46 39 72 349 342 348 355 347 302 341 357 4 9 24 78 12 332 350 8 36 59 70 69 30 293 276 280 256 269 281 298 324 283 266 282 256 203 197 176 150 143 143 134 108 103 314 332 324 310
355 2 4 9 15 13 15 10 7 11 9 30 100 64 62 99 240 182 291 266 234 336 357 309 322 359 41 55 337 311 47 15 347 24 7 27 46 10 360 13 22 59 84 48 48 21 11 300 336 16 340 358 26 86 94 168 354 343 226 93 83 136 142 253 242 245 274 292 294 293 274 231 256 313 307 267 157 149 145 142 137 129 118 43 360 350 346 339
353 359 354 1 10 4 6 4 357 4 3 29 74 68 91 235 241 137 236 256 265 319 329 4 34 36 18 2 331 337 92 322 353 51 27 41 70 3 351 338 357 37 84 44 7 55 27 273 286 343 340 6 5 328 104 109 24 313 186 66 37 166 142 177 202 192 221 320 301 267 231 229 245 299 322 45 123 140 150 155 149 157 224 295 330 342 350 347
347 348 352 356 357 356 0 354 351 1 352 52 66 60 188 222 231 159 184 209 95 187 317 346 33 54 358 323 344 8 47 320 8 49 25 40 113 310 349 281 329 22 73 78 54 359 13 283 299 352 2 24 4 326 43 57 269 331 54 49 264 185 111 107 245 29 68 5 284 261 261 294 322 297 359 56 126 155 164 172 173 197 253 277 305 329 342 344
343 337 342 344 346 352 352 347 355 358 348 68 81 170 216 205 196 180 165 128 154 124 90 17 359 34 345 316 328 327 337 327 12 49 34 11 35 173 152 280 311 356 23 112 136 328 358 273 312 21 165 352 2 1 48 44 74 86 38 213 213 78 81 92 326 354 37 285 276 293 278 301 328 280 310 45 206 218 221 205 202 226 262 280 302 322 331 337
336 330 329 337 344 344 343 348 354 349 6 68 84 163 188 146 215 212 240 155 157 83 88 124 141 50 178 208 313 312 337 339 11 48 48 358 42 175 174 304 326 355 355 97 131 319 32 292 310 5 211 329 355 20 2 17 51 89 128 161 102 93 354 47 65 326 349 285 283 301 296 268 228 226 214 214 219 218 224 225 223 236 258 291 314 326 331 334
332 324 322 337 341 340 345 350 344 353 59 80 117 183 172 197 228 206 197 164 99 77 97 166 163 62 137 166 248 302 358 19 36 52 84 81 74 202 200 182 337 3 4 86 129 260 32 13 289 304 291 313 351 37 275 327 19 66 96 57 41 129 172 183 126 171 207 263 280 312 322 276 229 222 201 210 217 209 211 221 225 237 269 316 324 329 334 334
332 326 323 332 339 342 343 347 359 42 74 97 167 174 163 196 172 120 144 159 29 45 99 188 151 84 182 171 136 331 36 67 81 81 173 68 73 244 280 191 234 356 9 77 91 12 25 68 256 300 344 324 324 42 137 266 319 6 20 357 351 90 124 252 172 132 144 194 230 285 299 266 239 214 201 219 227 211 203 207 227 253 298 326 325 327 331 330
332 329 323 330 340 341 341 11 37 56 85 100 133 153 101 150 142 94 87 101 56 53 94 140 128 126 164 136 97 112 78 75 68 84 219 298 67 258 265 156 168 341 16 66 53 34 26 90 230 296 334 316 248 293 334 251 225 200 240 198 175 144 98 144 286 319 98 179 188 184 273 272 258 209 235 251 243 207 194 210 263 291 312 320 321 323 324 324
333 329 331 337 344 348 10 45 45 53 94 100 77 104 122 125 128 106 90 90 67 63 80 96 98 112 139 127 108 167 112 109 128 99 183 233 189 203 202 138 104 2 81 98 353 91 117 99 71 280 270 261 276 307 42 224 174 116 62 136 115 106 109 130 230 266 311 246 157 133 263 270 265 268 280 269 214 187 187 240 289 304 312 316 318 318 317 317
321 307 318 331 342 14 50 58 33 27 57 97 91 97 113 107 103 120 100 49 45 59 60 66 72 70 148 162 131 165 183 149 159 163 191 239 234 209 186 151 90 39 87 100 248 166 97 82 42 289 289 317 315 330 38 61 100 100 340 47 97 35 100 143 184 187 205 233 131 78 269 264 276 299 311 342 194 244 272 285 295 304 309 312 312 312 313 314
328 316 315 337 330 307 94 107 124 74 59 95 84 76 83 87 77 93 103 41 50 85 80 82 91 70 115 132 111 155 204 157 183 235 157 194 240 244 182 164 90 65 90 74 79 151 208 91 68 341 332 341 345 350 343 344 51 122 272 357 103 81 80 112 150 78 265 221 173 195 257 250 270 329 3 337 304 300 298 300 304 305 306 307 307 308 310 311
320 298 318 6 353 275 145 141 144 140 141 107 92 79 73 73 61 78 109 95 81 94 96 105 124 105 104 97 74 60 13 41 304 318 15 278 268 275 200 190 143 90 82 70 90 124 149 195 118 88 326 299 308 314 301 300 322 305 292 110 157 130 135 182 198 90 260 228 172 200 255 265 288 312 319 307 300 301 301 303 304 303 303 304 304 306 307 308
40 300 330 10 20 67 98 116 127 130 150 142 109 106 121 96 77 105 109 104 101 108 103 111 132 109 75 67 63 37 360 19 38 31 294 259 276 281 241 228 192 139 90 90 125 113 90 302 215 185 206 235 255 266 261 269 290 281 275 262 246 212 188 158 127 197 232 262 225 233 259 279 284 288 293 293 293 297 299 300 301 300 300 302 303 304 304 305
109 123 320 8 26 64 79 89 110 123 147 156 138 160 155 138 228 130 130 161 146 136 111 99 145 149 136 135 99 39 325 19 20 349 198 226 268 298 271 244 206 195 151 133 139 110 84 311 251 206 228 250 267 275 270 228 257 262 268 268 256 236 210 187 221 237 242 329 263 237 238 266 275 280 285 288 293 296 296 296 297 297 298 299 301 302 302 303
181 217 209 141 305 82 79 76 121 121 122 130 125 144 147 145 181 176 181 186 158 160 143 48 230 198 176 166 135 115 217 9 334 262 213 248 283 335 319 244 190 178 157 140 137 116 108 267 251 188 253 265 269 276 267 241 253 253 250 260 258 248 231 221 237 247 243 250 260 268 273 271 275 282 285 288 291 292 291 291 293 293 295 297 299 300 300 302
146 145 163 153 162 150 125 133 138 124 112 102 99 139 162 171 189 201 173 120 106 223 178 205 251 212 175 160 125 131 197 159 330 258 219 171 252 296 324 280 187 164 147 126 111 110 114 261 242 164 291 280 254 261 266 261 268 264 245 247 248 247 243 239 247 251 245 249 261 275 278 273 274 278 280 284 287 287 288 290 292 293 295 298 299 298 299 301
182 159 163 144 118 116 120 133 140 123 96 81 117 176 176 172 185 201 178 159 161 213 181 201 241 187 168 161 135 171 213 184 165 238 187 153 229 227 209 223 166 131 119 113 83 95 125 277 326 85 309 295 267 262 273 267 267 269 262 253 248 250 249 246 250 252 248 252 258 265 270 271 273 275 277 281 283 284 287 291 293 295 298 300 301 301 302 303
213 212 186 151 109 117 132 142 141 118 88 159 176 179 182 196 193 175 175 199 187 162 184 194 164 130 130 154 182 237 244 215 210 233 193 186 215 214 209 208 167 136 111 153 144 111 158 270 5 60 330 296 300 326 311 298 287 277 269 261 251 245 241 238 246 242 234 244 256 262 267 268 274 280 282 284 287 290 290 292 295 298 302 305 304 304 306 306
223 228 209 177 120 160 170 161 125 121 181 203 178 170 187 215 191 167 156 234 201 171 197 188 154 122 101 173 217 248 262 252 249 257 233 229 241 243 246 237 195 172 158 148 136 127 154 155 33 64 281 283 305 357 334 321 313 294 267 249 214 206 215 229 253 248 229 221 248 262 258 266 285 295 294 291 292 291 290 293 297 299 304 308 307 306 307 308